Regional Weather Roundup
Issued by NWS

Home | Current Version | Previous Version | Graphics & Text | Print | Product List | Glossary On
Versions: 1 2 3 4 5 6 7 8 9 10 11 12 13 14 15 16 17 18 19 20 21 22 23 24 25 26 27 28 29 30 31 32 33 34 35 36 37 38 39 40 41 42 43 44 45 46 47 48 49 50
000
ASUS43 KDTX 260010
RWRMI
MICHIGAN HOURLY REGIONAL WEATHER ROUNDUP
NATIONAL WEATHER SERVICE DETROIT/PONTIAC MI
800 PM EDT MON MAY 25 2015

NOTE: "FAIR" INDICATES FEW OR NO CLOUDS BELOW 12,000 FEET WITH NO
SIGNIFICANT WEATHER AND/OR OBSTRUCTION TO VISIBILITY.

MIZ047>049-052>055-059>063-066>070-074>076-081>083-260100-
SOUTHEAST LOWER MICHIGAN

CITY           SKY/WX    TMP DP  RH WIND       PRES   REMARKS
ADRIAN         MOCLDY    78  62  57 W13G23    29.98R
6HR MIN TEMP:  77; 6HR MAX TEMP:  83;

ALMA           PTSUNNY   73  63  68 SW8G16    29.92R
ANN ARBOR      MOCLDY    77  61  57 SW16G25   29.96R
BAD AXE        PTCLDY    72  64  76 SW13G23   29.89S
CARO           MOCLDY    73  64  71 SW12G17   29.90R
DETROIT CITY   PTCLDY    79  59  50 SW26G32   29.93R
6HR MIN TEMP:  75; 6HR MAX TEMP:  81; 6HR PCP: TRACE;

DETROIT        MOCLDY    80  60  50 SW24G31   29.96R
6HR MIN TEMP:  78; 6HR MAX TEMP:  84; 6HR PCP: TRACE;

FLINT          CLOUDY    74  66  76 SW7       29.93R
6HR MIN TEMP:  70; 6HR MAX TEMP:  83; 6HR PCP:  0.11;

GROSSE ILE     PTCLDY    79  61  53 SW12G24   29.95R
HILLSDALE      CLOUDY    77  61  58 SW13      29.99R
6HR MIN TEMP:  76; 6HR MAX TEMP:  82;

HOWELL         MOCLDY    74  66  76 W6        29.95R
6HR MIN TEMP:  71; 6HR MAX TEMP:  81;


CITY           SKY/WX    TMP DP  RH WIND       PRES   REMARKS
JACKSON        MOCLDY    77  58  51 SW13      29.96R
6HR MIN TEMP:  76; 6HR MAX TEMP:  81;

LAMBERTVILLE   MOCLDY    79  59  50 SW13G22   29.98S
LANSING        MOCLDY    74  62  66 W20G26    29.95R
6HR MIN TEMP:  69; 6HR MAX TEMP:  81; 6HR PCP:  0.09;

LAPEER         FAIR      70  64  83 SW5       29.93S
MASON          MOCLDY    74  63  69 W10G17    29.95R
MONROE         MOCLDY    79  61  53 SW14      29.96R
MT. CLEMENS    MOCLDY    80  61  53 SW16G29   29.91R
6HR MIN TEMP:  79; 6HR MAX TEMP:  82;

PONTIAC        MOCLDY    78  59  51 SW16G25   29.93R
6HR MIN TEMP:  69; 6HR MAX TEMP:  82; 6HR PCP:  0.09;

PORT HOPE        N/A    N/A N/A N/A SW9G23    29.85S
                                      6HR PCP:  0.57;

PORT HURON     CLOUDY    75  63  64 S12G17    29.91S
TRI CITIES     CLOUDY    76  61  59 W16       29.91R
6HR MIN TEMP:  70; 6HR MAX TEMP:  79; 6HR PCP:  0.08;

MIDLAND        FAIR      74  60  60 SW9G20    29.89R
TROY           MOCLDY    81  59  47 SW20G29   29.94S
SAGINAW HB     MOCLDY    73  63  68 SW14G20   29.90R
$$
MIZ043>046-050>051-056>058-064>065-071>073-077>080-260100-
SOUTHWEST LOWER MICHIGAN

CITY           SKY/WX    TMP DP  RH WIND       PRES   REMARKS
BATTLE CREEK   PTSUNNY   75  60  59 W10       29.96R
6HR MIN TEMP:  70; 6HR MAX TEMP:  81; 6HR PCP:  0.02;

BENTON HARBOR  CLOUDY    73  59  61 SW8       29.93F
6HR MIN TEMP:  67; 6HR MAX TEMP:  74;

BIG RAPIDS     PTSUNNY   72  59  65 SW20      29.90R
6HR MIN TEMP:  70; 6HR MAX TEMP:  74; 6HR PCP:  0.01;

COLDWATER      CLOUDY    76  55  49 W10G24    29.97R
6HR MIN TEMP:  75; 6HR MAX TEMP:  79;

FREMONT        FAIR      71  60  67 SW8       29.90R
HOLLAND        PTSUNNY   74  60  61 SW14      29.93S
6HR MIN TEMP:  68; 6HR MAX TEMP:  75; 6HR PCP: TRACE;

GRAND RAPIDS   PTSUNNY   73  61  65 SW15G24   29.93S
6HR MIN TEMP:  68; 6HR MAX TEMP:  77; 6HR PCP:  0.40;

IONIA          FAIR      73  60  64 W15G22    29.93R
KALAMAZOO      PTSUNNY   75  59  57 W9        29.95S
6HR MIN TEMP:  71; 6HR MAX TEMP:  82; 6HR PCP:  0.07;

LUDINGTON      SUNNY     71  61  70 SW15G24   29.86S
6HR MIN TEMP:  66; 6HR MAX TEMP:  72;

MARSHALL       MOCLDY    75  64  68 W7        29.96R
MOUNT PLEASANT PTSUNNY   73  61  65 SW12G20   29.89S
6HR MIN TEMP:  72; 6HR MAX TEMP:  78; 6HR PCP:  0.01;

MUSKEGON       PTSUNNY   67  54  63 S14G21    29.91R
6HR MIN TEMP:  62; 6HR MAX TEMP:  71; 6HR PCP: TRACE;

SOUTH HAVEN    PTSUNNY   75  57  54 SW10      29.93F
$$
MIZ016>042-260100-
NORTHERN LOWER MICHIGAN

CITY           SKY/WX    TMP DP  RH WIND       PRES   REMARKS
ALPENA         MOCLDY    75  62  64 SW10G20   29.80R
6HR MIN TEMP:  69; 6HR MAX TEMP:  79; 6HR PCP:  0.08;

BEAVER ISLAND  MOSUNNY   61  57  86 SW14G25   29.77R
6HR MIN TEMP:  57; 6HR MAX TEMP:  70;

BELLAIRE       MOSUNNY   72  61  68 SW9G16    29.82R
6HR MIN TEMP:  69; 6HR MAX TEMP:  77;

CADILLAC       PTSUNNY   71  61  70 SW14G25   29.87R
CHARLEVOIX     MOSUNNY   71  62  72 SW14G21   29.82S
FRANKFORT      SUNNY     69  56  63 S12G20    29.83R
GAYLORD        PTSUNNY   69  64  84 SW18G25   29.83R
6HR MIN TEMP:  69; 6HR MAX TEMP:  77; 6HR PCP:  0.01;

GRAYLING       PTSUNNY   70  61  73 SW8G18    29.86R
HARBOR SPRINGS CLOUDY    64  58  80 W6        29.79R
HOUGHTON LAKE  PTSUNNY   71  60  68 SW14G24   29.87R
6HR MIN TEMP:  68; 6HR MAX TEMP:  75; 6HR PCP:  0.10;

MANISTEE       SUNNY     72  59  64 SW14      29.86R
OSCODA         CLOUDY    76  61  59 SW13G22   29.82S
PELLSTON       LGT RAIN  69  62  78 SW9       29.79R
6HR MIN TEMP:  68; 6HR MAX TEMP:  75; 6HR PCP:  0.02;

ROGERS CITY    PTSUNNY   75  63  67 W8        29.79R
TRAVERSE CITY  PTSUNNY   74  61  63 SW9       29.80R
6HR MIN TEMP:  70; 6HR MAX TEMP:  78; 6HR PCP:  0.01;

$$
MIZ007>008-015-260100-
EASTERN UPPER MICHIGAN

CITY           SKY/WX    TMP DP  RH WIND       PRES   REMARKS
KINROSS        CLOUDY    59  57  94 SW5       29.76S
6HR MIN TEMP:  55; 6HR MAX TEMP:  61;

MACKINAC ISLAN CLOUDY    56  56 100 SW10G20   29.77S
6HR MIN TEMP:  44; 6HR MAX TEMP:  57; 6HR PCP:  0.03;

NEWBERRY       CLOUDY    58  58  99 SW13G18   29.75R FOG
6HR MIN TEMP:  56; 6HR MAX TEMP:  62; 6HR PCP:  0.07;

S. S. MARIE    CLOUDY    62  59  90 SW13      29.75S
6HR MIN TEMP:  55; 6HR MAX TEMP:  62; 6HR PCP:  0.09;

MUNISING         N/A     69  63  81 S6        29.71R
6HR MIN TEMP:  61; 6HR MAX TEMP:  69; 6HR PCP:  0.07;

$$
MIZ004>006-011>014-085-260100-
CENTRAL UPPER MICHIGAN

CITY           SKY/WX    TMP DP  RH WIND       PRES   REMARKS
MANISTIQUE     PTSUNNY   48  47  94 S10       29.75R
6HR MIN TEMP:  47; 6HR MAX TEMP:  54; 6HR PCP:  0.02;

ESCANABA       MOSUNNY   73  61  64 SW10      29.72S
6HR MIN TEMP:  54; 6HR MAX TEMP:  73;

MENOMINEE      MOSUNNY   75  59  57 W9        29.75R
6HR MIN TEMP:  64; 6HR MAX TEMP:  75;

SAWYER-GWINN   SUNNY     68  59  73 W8G18     29.73R
$$
MIZ001>003-009>011-084-260100-
WESTERN UPPER MICHIGAN

CITY           SKY/WX    TMP DP  RH WIND       PRES   REMARKS
IRON MOUNTAIN  SUNNY     70  59  68 SW10      29.74R
6HR MIN TEMP:  59; 6HR MAX TEMP:  71; 6HR PCP:  0.05;

HOUGHTON       CLOUDY    58  56  93 W12       29.70S
6HR MIN TEMP:  48; 6HR MAX TEMP:  58; 6HR PCP:  0.33;

COPPER HARBOR    N/A     44  42  93 CALM      29.70R
6HR MIN TEMP:  44; 6HR MAX TEMP:  53; 6HR PCP:  0.52;

IRONWOOD       CLOUDY    61  61 100 W3        29.70S
6HR MIN TEMP:  61; 6HR MAX TEMP:  63;

$$

ABBREVIATIONS USED IN REMARKS
   TC - TEMPERATURE IN CELSIUS
  WCI - WIND CHILL INDEX
   HX - HEAT INDEX
  VSB - VISIBILITY




USA.gov is the U.S. government's official web portal to all federal, state and local government web resources and services.